Location: Kiltepe
(36.4752°N, 30.0120°E)
Time: 10:20:45
(UTC+00:00)

GP-B - Pass Details

Date: 03 August 2024
Orbit: 623 x 627 km, 89.8° (Epoch: 18 September)

Event Time Altitude Azimuth Distance (km) Brightness Sun altitude
Rises 17:31:44 0° 358° (N) 2,922 6.9 -6.0°
Reaches altitude 10° 17:33:58 10° 355° (N) 2,010 6.2 -6.4°
Maximum altitude 17:38:19 62° 275° (W) 710 3.7 -7.2°
Drops below altitude 10° 17:42:38 10° 195° (SSW) 1,992 5.5 -7.9°
Sets 17:44:51 0° 192° (SSW) 2,893 6.3 -8.3°
